Camden, NC

12:48 AM EDT on August 26, 2016 (GMT -0400)
Elizabeth City Cgas-Regional

Weather History for KECG - May, 2013

Change the Weather History Date:

Thursday, May 9, 2013

  Actual Average Record
Temperature  
Mean Temperature 68 °F 65 °F  
Max Temperature 78 °F 75 °F 92 °F (1936)
Min Temperature 58 °F 54 °F 39 °F (1976)
Degree Days  
Heating Degree Days 0 3  
Month to date heating degree days 32 33  
Since 1 July heating degree days 2842 3194  
Cooling Degree Days 3 3  
Month to date cooling degree days 7 21  
Year to date cooling degree days 61 63  
Growing Degree Days 18 (Base 50)    
Moisture  
Dew Point 57 °F    
Average Humidity 72    
Maximum Humidity 97    
Minimum Humidity 47    
Precipitation  
Precipitation T in 0.12 in 2.42 in (2012)
Month to date precipitation 0.27 0.96  
Year to date precipitation 9.75 14.52  
Snow  
Snow 0.00 in - 0.00 in (2002)
Month to date snowfall 0.0  
Since 1 July snowfall T  
Snow Depth 0.00 in    
Sea Level Pressure  
Sea Level Pressure 30.01 in    
Wind  
Wind Speed 7 mph (SW)    
Max Wind Speed 17 mph    
Max Gust Speed 21 mph    
Visibility 9 miles    
Events Rain    
T = Trace of Precipitation, MM = Missing Value Source: NWS Daily Summary

Daily Weather History Graph

Daily Weather History Graph

Search for Another Location

Airport or City:

Trip Planner

Search our weather history database for the weather conditions in past years. The results will help you decide how hot, cold, wet, or windy it might be!

Date:

Astronomy

May. 09, 2013 Rise Set
Actual Time 6:03 AM EDT 7:59 PM EDT
Civil Twilight 5:35 AM EDT 8:27 PM EDT
Nautical Twilight 5:00 AM EDT 9:02 PM EDT
Astronomical Twilight 4:24 AM EDT 9:38 PM EDT
Moon 5:45 AM EDT (5/9) 7:52 PM EDT (5/9)
Length of Visible Light 14h 52m
Length of Day
13h 56m
Waning Crescent, 0% of the Moon is Illuminated
May 9
Waning Crescent
May 9
New
May 18
First Quarter
May 25
Full
May 31
Last Quarter

Hourly Weather History & Observations

Time (EDT) Temp. Dew Point Humidity Pressure Visibility Wind Dir Wind Speed Gust Speed Precip Events Conditions
12:54 AM 64.0 °F 57.9 °F 80% 29.98 in 10.0 mi SW 15.0 mph - 0.00 in Rain Light Rain
1:54 AM 62.1 °F 57.9 °F 86% 29.96 in 10.0 mi SW 11.5 mph - 0.00 in   Mostly Cloudy
2:54 AM 63.0 °F 59.0 °F 87% 29.96 in 10.0 mi SW 9.2 mph - N/A   Partly Cloudy
3:54 AM 61.0 °F 57.9 °F 90% 29.96 in 10.0 mi SW 6.9 mph - N/A   Mostly Cloudy
4:28 AM 60.8 °F 59.0 °F 94% 29.97 in 10.0 mi West 9.2 mph - N/A   Mostly Cloudy
4:54 AM 61.0 °F 59.0 °F 93% 29.96 in 10.0 mi West 6.9 mph - N/A   Overcast
5:54 AM 59.0 °F 57.0 °F 93% 29.98 in 10.0 mi West 6.9 mph - N/A   Mostly Cloudy
6:04 AM 59.0 °F 57.2 °F 94% 29.98 in 9.0 mi West 5.8 mph - N/A   Scattered Clouds
6:51 AM 59.0 °F 57.2 °F 94% 30.00 in 6.0 mi SW 4.6 mph - N/A   Mostly Cloudy
6:54 AM 59.0 °F 57.9 °F 96% 30.00 in 6.0 mi SW 3.5 mph - N/A   Mostly Cloudy
7:54 AM 61.0 °F 59.0 °F 93% 30.01 in 9.0 mi WNW 5.8 mph - N/A   Mostly Cloudy
8:16 AM 62.6 °F 57.2 °F 82% 30.02 in 10.0 mi WNW 9.2 mph - N/A   Scattered Clouds
8:54 AM 64.0 °F 57.0 °F 78% 30.03 in 10.0 mi WSW 6.9 mph - N/A   Clear
9:54 AM 66.9 °F 57.0 °F 70% 30.03 in 10.0 mi SW 6.9 mph - N/A   Clear
10:54 AM 72.0 °F 57.9 °F 61% 30.04 in 10.0 mi West 6.9 mph - N/A   Clear
11:08 AM 71.6 °F 55.4 °F 57% 30.03 in 1.8 mi WNW 6.9 mph - N/A   Haze
11:16 AM 71.6 °F 55.4 °F 57% 30.03 in 10.0 mi WNW 9.2 mph - N/A   Clear
11:54 AM 73.0 °F 57.0 °F 57% 30.04 in 10.0 mi Variable 5.8 mph - N/A   Clear
1:54 PM 75.0 °F 55.0 °F 50% 30.01 in 10.0 mi Variable 4.6 mph - N/A   Partly Cloudy
2:54 PM 77.0 °F 55.0 °F 47% 30.00 in 10.0 mi SSW 9.2 mph 16.1 mph N/A   Scattered Clouds
3:54 PM 75.9 °F 57.0 °F 52% 29.99 in 10.0 mi SSW 10.4 mph - N/A   Partly Cloudy
4:54 PM 75.9 °F 55.9 °F 50% 29.99 in 10.0 mi South 10.4 mph - N/A   Scattered Clouds
5:54 PM 77.0 °F 55.9 °F 48% 29.99 in 10.0 mi SW 9.2 mph - N/A   Mostly Cloudy
6:54 PM 75.0 °F 57.9 °F 55% 29.99 in 10.0 mi SSW 6.9 mph - N/A   Mostly Cloudy
7:54 PM 71.1 °F 57.9 °F 63% 30.01 in 10.0 mi SSW 5.8 mph - N/A   Clear
8:54 PM 69.1 °F 57.9 °F 68% 30.03 in 10.0 mi South 3.5 mph - N/A   Clear
9:54 PM 63.0 °F 57.9 °F 84% 30.05 in 10.0 mi SSW 4.6 mph - N/A   Clear
10:54 PM 64.9 °F 57.9 °F 78% 30.06 in 10.0 mi SSW 3.5 mph - N/A   Clear
11:54 PM 64.0 °F 57.9 °F 80% 30.06 in 10.0 mi South 4.6 mph - N/A   Clear